Bakersfield, CA

9:58 PM PDT on October 18, 2017 (GMT -0700)
Meadows

Weather History for KBFL - August, 2012

Change the Weather History Date:

Wednesday, August 15, 2012

  Actual Average Record
Temperature  
Mean Temperature 92 °F 83 °F  
Max Temperature 106 °F 96 °F 110 °F (1906)
Min Temperature 77 °F 69 °F 52 °F (1903)
Degree Days  
Heating Degree Days 0    
Month to date heating degree days 0  
Since 1 June heating degree days 2  
Since 1 July heating degree days 0  
Cooling Degree Days 27    
Month to date cooling degree days 374  
Year to date cooling degree days 1627  
Since 1 June cooling degree days 1322  
Growing Degree Days 42 (Base 50)    
Moisture  
Dew Point 46 °F    
Average Humidity 21    
Maximum Humidity 33    
Minimum Humidity 8    
Precipitation  
Precipitation 0.00 in 0.00 in 0.06 in (1983)
Month to date precipitation T 0.01  
Year to date precipitation 3.64 4.40  
Since 1 July precipitation 0.02  
Snow  
Snow 0.00 in - - ()
Month to date snowfall 0.0  
Since 1 June snowfall 0.0  
Since 1 July snowfall 0.0  
Snow Depth 0.00 in    
Sea Level Pressure  
Sea Level Pressure 29.74 in    
Wind  
Wind Speed 7 mph (NNW)    
Max Wind Speed 16 mph    
Max Gust Speed 22 mph    
Visibility 10 miles    
Events      
T = Trace of Precipitation, MM = Missing Value Source: NWS Daily Summary

Daily Weather History Graph

Daily Weather History Graph

Search for Another Location

Airport or City:

Trip Planner

Search our weather history database for the weather conditions in past years. The results will help you decide how hot, cold, wet, or windy it might be!

Date:

Astronomy

Aug. 15, 2012 Rise Set
Actual Time 6:16 AM PDT 7:44 PM PDT
Civil Twilight 5:49 AM PDT 8:11 PM PDT
Nautical Twilight 5:16 AM PDT 8:43 PM PDT
Astronomical Twilight 4:42 AM PDT 9:17 PM PDT
Moon 4:19 AM PDT (8/15) 6:20 PM PDT (8/15)
Length of Visible Light 14h 22m
Length of Day
13h 28m
Waning Crescent, 4% of the Moon is Illuminated
Aug 15
Waning Crescent
Aug 17
New
Aug 24
First Quarter
Aug 31
Full
Sep 8
Last Quarter

Hourly Weather History & Observations

Time (PDT) Temp. Heat Index Dew Point Humidity Pressure Visibility Wind Dir Wind Speed Gust Speed Precip Events Conditions
12:54 AM 87.1 °F - 44.1 °F 22% 29.73 in 10.0 mi North 5.8 mph - N/A   Clear
1:54 AM 84.0 °F - 43.0 °F 24% 29.73 in 10.0 mi Calm Calm - N/A   Clear
2:54 AM 84.0 °F - 43.0 °F 24% 29.72 in 10.0 mi Calm Calm - N/A   Clear
3:54 AM 82.9 °F - 45.0 °F 26% 29.73 in 10.0 mi Calm Calm - N/A   Clear
4:54 AM 80.1 °F - 46.0 °F 30% 29.73 in 10.0 mi NNE 4.6 mph - N/A   Clear
5:54 AM 77.0 °F - 46.9 °F 34% 29.74 in 10.0 mi NE 3.5 mph - N/A   Clear
6:54 AM 80.1 °F - 46.9 °F 31% 29.76 in 10.0 mi ENE 3.5 mph - N/A   Clear
7:54 AM 84.9 °F - 48.0 °F 28% 29.77 in 10.0 mi Calm Calm - N/A   Clear
8:54 AM 88.0 °F - 48.0 °F 25% 29.77 in 10.0 mi WNW 3.5 mph - N/A   Clear
9:54 AM 90.0 °F - 50.0 °F 25% 29.77 in 10.0 mi Variable 5.8 mph - N/A   Clear
10:54 AM 91.9 °F - 51.1 °F 25% 29.78 in 10.0 mi Calm Calm - N/A   Clear
11:54 AM 95.0 °F - 52.0 °F 23% 29.77 in 10.0 mi NNW 4.6 mph - N/A   Mostly Cloudy
12:54 PM 98.1 °F 95.7 °F 53.1 °F 22% 29.75 in 10.0 mi West 9.2 mph - N/A   Mostly Cloudy
1:54 PM 102.9 °F - 52.0 °F 18% 29.73 in 10.0 mi WNW 13.8 mph - N/A   Mostly Cloudy
2:54 PM 104.0 °F 101.8 °F 53.1 °F 18% 29.70 in 10.0 mi NW 12.7 mph - N/A   Clear
3:54 PM 105.1 °F - 52.0 °F 17% 29.69 in 10.0 mi NW 15.0 mph - N/A   Clear
4:54 PM 104.0 °F - 52.0 °F 18% 29.68 in 10.0 mi NW 13.8 mph - N/A   Clear
5:54 PM 102.9 °F - 52.0 °F 18% 29.68 in 10.0 mi NW 12.7 mph - N/A   Clear
6:54 PM 100.9 °F - 52.0 °F 19% 29.68 in 10.0 mi NNW 10.4 mph - N/A   Clear
7:54 PM 96.1 °F 93.5 °F 53.1 °F 23% 29.71 in 10.0 mi NW 6.9 mph - N/A   Mostly Cloudy
7:58 PM 96.8 °F 94.4 °F 53.6 °F 23% 29.73 in 10.0 mi NW 8.1 mph - N/A   Clear
8:54 PM 91.9 °F - 45.0 °F 20% 29.74 in 10.0 mi NNW 9.2 mph - N/A   Clear
9:54 PM 91.4 °F - 30.2 °F 11% 29.79 in 10.0 mi North 9.2 mph - N/A   Scattered Clouds
10:54 PM 90.0 °F - 25.0 °F 10% 29.78 in 10.0 mi NNW 11.5 mph - N/A   Partly Cloudy
11:54 PM 87.1 °F - 19.9 °F 8% 29.80 in 10.0 mi NNW 5.8 mph - N/A   Clear